Regional Weather Roundup
Issued by NWS Jackson, KY

Home | Current Version | Previous Version | Text Only | Print | Product List | Glossary On
Versions: 1 2 3 4 5 6 7 8 9 10 11 12 13 14 15 16 17 18 19 20 21 22 23 24 25 26 27
000
ASUS43 KJKL 252010
RWRJKL

EAST KENTUCKY HOURLY WEATHER ROUNDUP
NATIONAL WEATHER SERVICE JACKSON KY
400 PM EDT THU AUG 25 2016

NOTE: "FAIR" INDICATES FEW OR NO CLOUDS BELOW 12,000 FEET WITH
NO SIGNIFICANT WEATHER AND/OR OBSTRUCTIONS TO VISIBILITY.

* THESE REPORTS ARE NOT UNDER NWS QUALITY CONTROL AND MAY NOT
  REPORT WEATHER SUCH AS PRECIPITATION AND FOG.

KYZ079-080-083-085-087-088-110-112-115-119-120-252100
...EASTERN KENTUCKY...

CITY           SKY/WX    TMP DP  RH WIND       PRES   REMARKS
JACKSON        MOSUNNY   89  74  60 VRB5      30.14F HX  98
LONDON         SUNNY     89  68  49 W9        30.14F HX  93
SOMERSET*      PTSUNNY   88  70  55 CALM      30.14F HX  92
MONTICELLO*    MOSUNNY  N/A N/A N/A NW10G16   30.15S
WILLIAMSBURG*  PTCLDY    88  75  66 NW5       30.14F HX  97
MIDDLESBORO*   MOSUNNY   87  76  69 CALM      30.15F HX  96
HARLAN APT*    MOCLDY    84  70  61 CALM      30.16F
PIKE CO APT*     N/A     88  73  60 CALM      30.14F HX  96
BIG SANDY APT* PTCLDY    89  71  54 SW6       30.13F HX  95
MOREHEAD APT*  PTCLDY    90  72  55 W8        30.12F HX  96
ASHLAND*       SUNNY     91  73  55 SW9       30.04F HX 100
$$

KYZ035-036-041-042-044-050-067-078-099-252100
...CENTRAL KENTUCKY...

CITY           SKY/WX    TMP DP  RH WIND       PRES   REMARKS
MT STERLING*   MOSUNNY  N/A N/A N/A W8G16     30.12F
FLEMING/MASON* MOSUNNY   91  72  52 SW12      30.10S HX  98
DANVILLE*      MOSUNNY   90  72  55 SW8       30.13S HX  96
LEXINGTON      MOSUNNY   91  69  48 W12       30.10F HX  96
FRANKFORT      PTSUNNY   91  69  48 W9        30.09F HX  96
LOUISVILLE     MOSUNNY   92  67  43 SW12      30.07F HX  95
LEBANON*         N/A     91  72  52 SW12      30.11S HX  98
GLASGOW*       MOSUNNY   91  72  53 W9        30.11F HX  98
BOWLING GREEN  MOSUNNY   93  72  50 W12       30.10F HX 101
$$

KYZ091>093-OHZ055-061-077-WVZ005-015-034-035-042-252100
...SOUTHERN OHIO/WEST VIRGINIA...

CITY           SKY/WX    TMP DP  RH WIND       PRES   REMARKS
COVINGTON      MOSUNNY   90  73  57 SW14      30.07F HX  98
COLUMBUS       MOSUNNY   87  74  64 SW16G28   30.03F HX  95
DAYTON         MOSUNNY   88  72  58 SW16G22   30.07S HX  94
WILMINGTON     MOSUNNY   88  74  63 SW14      30.07S HX  96
HUNTINGTON     MOSUNNY   91  72  53 W9        30.08F HX  98
CHARLESTON     PTSUNNY   89  72  56 SW10      30.09F HX  96
PINEVILLE*     CLOUDY    90  65  44 MISG      30.20F HX  91
BECKLEY        CLOUDY    82  69  64 W7        30.21F
BLUEFIELD      CLOUDY    81  68  64 W9        30.24F
LOGAN CO APT*    N/A     86  72  62 W6        30.14F HX  92
$$

VAZ002-007-008-TNZ017-027-036-066-071-252100
...SOUTHWEST VIRGINIA/EAST TENNESSEE...

CITY           SKY/WX    TMP DP  RH WIND       PRES   REMARKS
WISE*          PTSUNNY   84  61  45 W5        30.24F
JONESVILLE*      N/A     90  70  51 CALM      30.17F HX  95
ABINGDON*      CLOUDY    87  70  57 N7        30.20F HX  92
BRISTOL        MOSUNNY   89  69  51 VRB5      30.16F HX  93
MORRISTOWN*    PTCLDY    90  68  48 VRB5      30.14F HX  93
KNOXVILLE      MOSUNNY   92  68  45 CALM      30.12F HX  96
OAK RIDGE      MOSUNNY   88  71  57 W8        30.15F HX  94
CROSSVILLE     CLOUDY    89  68  49 NW8       30.19F HX  93
NASHVILLE      PTSUNNY   91  72  52 NW8       30.10F HX  98
$$

...KEY TO REMARKS...
VSB - VISIBILITY IN MILES
WCI - WIND CHILL INDEX
HX  - HEAT INDEX

$$




USA.gov is the U.S. government's official web portal to all federal, state and local government web resources and services.